CAPE
1322 1460 1273 1276 845 679 540 376 328 325 161 420 591 882 1007 1290 1114 870 830 895 615 502 414 401 680 727 496 600 720 694 583 273 288 207 181 142 20 57 17 0 0 0 0 1 0 0 0 0 0 1 0 1 0 0 2 3 4 4 4 5 3 2 2 3 2 3 2 5 11 13 14 12 11 8 11 16 18 13 13 11 19 25 21 19 14
1953 1745 1097 1212 1556 1338 989 684 395 515 224 325 697 898 1140 1403 1421 1133 785 764 486 578 610 390 332 367 570 761 801 713 650 506 461 264 252 96 31 53 43 22 0 0 0 0 0 0 2 2 0 0 0 0 0 0 2 2 3 4 4 5 6 7 7 6 6 6 4 3 5 6 8 15 13 13 13 11 13 16 13 14 25 24 20 22 24
1742 1595 1306 980 1343 993 930 805 223 599 219 244 645 1026 1146 1304 1454 1206 1075 920 632 306 299 444 277 246 630 700 718 670 558 663 435 193 131 40 30 38 48 18 4 0 0 0 5 4 3 0 0 0 0 0 0 0 1 1 1 2 2 2 4 4 2 1 3 4 8 7 6 5 7 6 9 10 11 10 11 13 16 14 24 18 17 23 22
1624 1368 1504 1503 1395 1260 1396 1280 1085 455 272 319 655 889 1244 1069 1255 1362 1408 1529 859 678 355 418 234 147 470 614 750 714 700 698 592 335 186 60 9 0 0 0 56 15 1 1 4 6 0 0 0 0 0 0 0 0 0 1 0 0 1 2 2 2 3 8 10 7 5 4 4 5 6 6 6 9 8 10 10 13 16 14 11 10 11 18 17
1648 1227 1390 1516 1459 1337 1178 1266 1051 742 474 245 352 1037 1007 1133 1401 1444 1393 1164 1226 681 263 397 349 320 305 783 801 650 546 432 632 560 360 343 69 1 0 3 13 149 56 2 3 0 0 0 0 0 0 0 0 4 6 1 4 1 0 0 0 2 4 6 8 6 6 6 2 2 5 6 5 6 6 9 16 20 16 12 13 12 17 17 17
1712 1662 1460 1331 1292 1289 1394 1206 1002 1154 1095 634 355 618 954 1026 1219 1088 1156 1083 1111 1346 859 723 395 574 680 568 916 699 734 419 582 678 441 233 168 23 4 0 1 0 0 0 0 0 0 0 0 0 0 1 11 57 74 44 18 16 7 5 4 14 6 8 9 10 8 6 4 2 3 7 6 5 6 6 17 22 20 16 14 13 22 20 14
1579 1687 1691 1466 1249 1091 632 1098 841 581 615 865 564 209 320 1045 1343 986 793 738 597 1057 846 641 692 418 1202 822 746 761 692 786 813 581 536 588 536 484 260 112 2 0 0 0 0 0 0 0 0 2 6 41 94 154 166 172 74 162 165 88 112 138 80 27 17 16 19 21 6 8 4 2 1 4 4 5 13 18 19 19 15 17 14 10 10
1491 1467 1517 1341 1310 1103 1188 1414 1235 1118 1010 1002 625 400 184 331 1063 1641 2088 855 826 958 949 813 956 1109 933 1203 901 925 791 798 686 449 666 458 458 456 588 449 229 1 55 0 0 0 0 0 0 7 134 186 150 263 321 406 405 406 203 263 262 170 146 109 37 32 27 24 16 9 13 8 7 11 9 9 11 15 18 16 14 11 16 8 23
1467 1454 1506 1487 1315 1258 1227 1163 1060 997 1015 724 691 321 262 392 759 1346 739 1439 800 775 800 1065 1099 480 408 1202 1190 893 771 1079 873 702 862 604 636 756 392 237 230 450 5 0 0 0 0 0 5 165 155 194 217 196 192 161 280 150 160 233 222 274 192 162 97 52 36 26 19 16 16 14 6 9 10 16 14 12 19 20 14 14 15 22 25
1466 1459 1684 1252 1150 1116 1142 957 1177 898 796 650 553 715 859 521 439 900 618 682 550 784 907 422 527 392 488 979 1314 980 995 1065 906 918 798 798 782 539 500 334 186 824 344 0 0 0 0 86 208 303 264 331 295 189 194 264 207 274 258 331 214 247 140 198 224 56 43 38 40 33 19 2 5 8 15 15 15 21 25 19 16 18 20 24 35
1383 1309 1343 1334 1172 1303 1193 1116 1124 1120 717 604 604 677 834 994 848 533 507 360 706 746 367 282 1025 372 536 655 1080 1054 1004 1117 876 858 831 879 791 1238 693 889 788 704 747 490 188 10 67 64 178 144 283 308 178 189 180 203 193 274 273 255 235 196 56 68 149 98 60 50 47 35 22 1 2 8 12 12 18 19 28 27 26 30 28 31 31
1360 1282 1328 1298 1239 1219 1224 1137 1091 828 715 846 730 682 741 1008 920 491 334 336 434 584 564 519 268 376 416 414 430 832 1115 1094 1046 1139 1051 881 763 620 534 476 665 568 418 408 476 547 179 149 146 31 187 223 154 84 100 161 116 310 331 284 224 138 61 12 48 196 123 33 48 38 30 17 5 9 11 9 21 18 22 21 20 22 26 30 41
1330 1191 1252 1318 1317 1194 1115 1002 985 746 640 690 718 741 778 1073 697 403 382 434 1162 948 568 449 257 216 267 314 518 516 555 1002 1042 853 879 816 1626 528 609 554 463 494 438 488 533 424 350 227 157 584 348 95 147 216 259 126 100 245 308 282 109 71 4 2 1 68 121 70 67 35 35 24 6 6 9 14 21 13 18 19 20 27 36 37 44
1400 1265 1246 1286 1251 1071 1015 1127 1040 1014 845 823 879 762 756 792 498 536 769 458 555 706 410 471 198 303 264 480 422 390 646 922 928 1206 982 836 717 710 334 402 420 312 443 649 562 572 538 444 205 258 367 315 113 97 87 43 93 209 353 226 161 4 0 2 0 1 49 88 79 29 27 15 1 4 8 16 18 16 12 26 37 42 31 44 36
1245 1150 1140 1181 1273 1249 1170 1253 1154 1054 949 1057 997 1029 765 492 600 695 592 432 425 473 343 435 470 273 218 270 321 328 815 969 892 1090 1011 878 806 918 737 724 505 383 288 434 629 603 554 489 800 435 425 501 234 118 47 17 39 268 341 230 154 3 0 2 1 2 21 78 86 44 25 4 0 3 13 20 17 18 10 25 36 36 29 26 18
1114 1052 1094 1081 1165 1262 1317 1273 1219 1146 1096 1016 915 782 716 573 516 610 685 652 407 440 400 510 513 390 146 228 286 287 317 520 614 868 1014 852 1003 677 801 679 539 548 363 218 208 344 328 824 721 371 349 439 377 264 168 126 152 274 388 268 0 0 0 0 2 1 5 87 72 50 30 1 0 9 22 26 17 6 9 8 16 26 24 19 15
1018 1106 1054 1038 1104 1166 1300 1296 1285 1275 1150 1112 935 689 561 509 678 825 711 517 492 526 517 442 506 668 345 278 302 104 194 874 652 798 755 754 774 842 757 553 508 421 498 378 380 365 253 393 326 392 646 457 392 384 212 108 72 294 307 156 0 0 3 5 3 3 1 96 122 76 24 7 3 16 27 24 8 5 6 5 4 8 4 4 3
1207 1236 1151 1064 1096 1091 1239 1334 1487 1375 1139 953 919 756 648 431 538 648 502 401 395 488 545 681 540 325 336 296 462 189 125 311 499 382 903 626 684 752 434 477 612 326 344 481 327 328 214 172 423 394 516 493 359 306 112 15 126 22 0 0 0 22 2 138 6 6 1 26 144 78 31 3 9 25 17 11 5 3 1 1 2 3 3 0 0
1476 1355 1414 1297 1218 1172 1202 1301 1366 1445 1152 1071 926 777 600 513 541 392 398 418 125 298 370 417 636 516 467 529 351 728 334 134 268 511 330 558 606 444 393 544 432 298 359 486 383 396 350 269 299 353 537 470 467 288 126 52 88 0 0 0 0 0 1 89 63 32 12 131 276 95 18 19 25 9 8 6 3 0 0 0 1 2 1 1 1
1655 1513 1478 1396 1309 1284 1280 1288 1283 1384 1264 938 876 874 636 443 441 295 221 195 291 280 280 246 312 620 483 590 954 1016 873 677 743 609 599 301 407 343 514 491 407 369 406 365 382 311 492 134 258 448 563 400 396 286 47 6 0 0 0 0 0 0 0 73 58 5 21 204 128 101 50 52 26 5 2 1 0 0 0 1 1 1 1 1 1
1558 1553 1614 1369 1317 1386 1326 1306 1170 1138 1258 1129 1013 983 714 506 465 466 433 283 386 355 392 209 234 708 735 1011 994 801 835 812 905 480 316 206 203 430 377 403 433 434 435 378 340 368 482 284 179 175 476 399 295 162 2 0 0 0 0 0 0 0 0 0 0 0 24 108 147 109 91 28 6 2 1 0 0 0 1 0 1 1 0 0 0
1425 1451 1008 1048 955 1138 1187 1238 1250 1141 1152 1068 1070 1012 990 681 520 611 807 697 921 964 844 786 752 862 1027 1002 660 800 820 732 560 452 259 263 221 125 356 432 334 319 506 366 339 237 255 380 127 282 444 440 268 99 0 0 0 0 0 0 0 0 0 0 0 16 32 63 113 117 59 13 6 1 0 0 0 0 0 0 0 1 1 0 0
1231 1258 1129 798 1018 865 884 827 837 1026 1140 998 854 889 908 996 716 687 935 1013 1052 1096 833 771 809 777 1016 1020 841 743 545 332 304 237 218 193 144 172 14 246 417 412 433 570 334 269 236 117 227 69 240 419 326 84 0 0 0 0 0 0 0 0 0 0 14 39 35 32 84 68 37 16 6 0 0 0 0 0 0 0 0 0 0 0 0
914 986 737 823 1231 944 787 887 994 989 1057 921 935 871 964 1012 788 913 900 984 1143 1124 928 924 883 799 864 832 661 697 676 514 491 405 268 147 107 90 169 154 386 457 583 546 392 246 130 219 224 65 201 282 295 242 0 0 0 0 0 0 0 0 0 0 10 35 28 31 32 32 20 6 6 0 0 0 0 0 0 0 0 0 0 0 0
651 662 704 846 785 1171 1014 862 871 886 962 960 876 838 845 980 1025 993 964 923 881 1067 998 890 852 784 873 914 726 630 528 524 384 292 161 298 115 98 53 86 175 292 440 560 382 253 181 283 262 15 189 116 156 107 0 0 0 0 0 0 0 0 0 0 0 1 11 14 14 12 8 7 2 0 0 0 0 0 0 0 0 0 0 0 0
850 745 631 574 659 791 950 890 886 1132 1268 988 914 888 843 1128 982 923 947 769 811 906 919 920 813 747 762 850 912 687 532 439 262 261 289 269 257 150 103 141 209 326 463 493 352 267 220 395 164 17 34 71 21 0 0 0 0 0 0 0 0 0 0 0 0 0 0 0 0 0 0 0 2 0 0 0 0 0 0 0 0 0 0 0 0
818 829 833 731 875 854 901 957 868 952 1001 1173 1148 824 744 863 1040 866 767 784 680 800 783 842 830 778 797 846 934 761 652 429 355 484 328 279 178 216 107 73 22 156 271 420 320 196 227 297 131 30 92 77 28 0 0 0 0 0 0 0 0 0 0 0 0 0 0 0 0 0 0 0 0 0 0 0 0 0 0 0 0 0 0 0 0
831 882 881 995 870 888 745 749 808 761 775 764 770 776 776 808 798 716 702 716 724 618 711 750 730 784 924 1009 886 791 763 614 575 428 322 274 152 80 157 190 59 171 403 431 399 283 228 193 87 65 46 26 2 0 0 0 0 0 0 0 0 0 0 0 0 0 0 0 0 0 0 0 0 0 0 0 0 0 0 0 0 0 0 0 0
1044 958 906 944 1105 825 768 693 686 688 675 671 676 636 695 717 774 888 850 921 739 774 704 657 805 835 892 910 754 752 651 690 562 410 280 268 236 228 279 136 74 117 154 73 49 277 181 204 130 86 94 32 0 0 0 0 0 0 0 0 0 0 0 0 0 0 0 0 0 0 0 0 0 0 0 0 0 0 0 0 0 0 0 0 0
1232 909 876 880 989 916 794 744 745 667 564 585 590 682 712 706 721 850 925 872 822 660 564 631 735 710 654 693 712 671 548 660 534 347 240 224 255 313 205 240 184 133 226 132 130 125 104 176 108 144 69 143 0 0 0 0 0 0 0 0 0 0 0 0 0 0 0 0 0 0 0 0 0 0 0 0 0 0 0 0 0 0 0 0 0
976 1127 1027 880 853 1048 950 692 716 697 638 582 538 508 605 557 541 687 822 807 659 734 672 850 667 712 666 726 658 619 631 370 346 405 526 386 409 491 650 694 523 383 317 302 258 204 125 106 128 109 169 95 0 0 0 0 0 0 0 0 0 0 0 0 0 0 0 0 0 0 0 0 0 0 0 0 0 0 0 0 0 0 0 0 0
1042 941 1067 1024 824 832 939 853 747 789 658 522 458 426 494 579 512 537 642 680 686 604 623 613 564 672 651 557 582 509 458 458 336 342 400 355 515 759 657 760 773 517 496 139 28 127 310 252 174 111 110 128 43 0 0 0 0 0 0 0 0 0 0 0 0 0 0 0 0 0 0 0 0 0 0 0 0 0 0 0 0 0 0 0 0
1095 1085 948 940 873 851 832 760 758 721 674 542 519 409 354 429 499 404 469 663 687 611 646 532 571 539 558 469 419 455 464 506 534 473 468 453 610 714 794 788 646 513 470 434 216 144 287 295 247 179 163 186 134 28 0 0 0 0 0 0 0 0 0 0 0 0 0 0 0 0 0 0 0 0 0 0 0 0 0 0 0 0 0 0 0
388 1054 1144 976 858 773 645 900 876 642 564 505 470 489 410 367 306 399 267 204 513 697 668 575 542 568 584 516 482 424 425 330 504 524 409 512 592 702 714 792 582 508 572 705 517 277 440 250 340 47 63 94 14 80 0 0 0 0 0 0 0 0 0 0 0 0 0 0 0 0 0 0 0 0 0 0 0 0 0 0 0 0 0 0 0
189 400 965 1176 1056 921 885 727 585 718 578 492 424 412 387 358 444 550 419 316 443 581 668 623 563 535 514 476 414 420 461 492 528 535 565 548 566 627 724 732 574 500 547 593 633 660 551 398 302 110 134 111 71 41 0 0 0 0 0 0 0 0 0 0 0 0 0 0 0 0 0 0 0 0 0 0 0 0 0 0 0 0 0 0 0
11 45 220 621 834 855 920 638 665 588 666 514 502 472 494 384 320 379 477 434 472 523 503 539 492 477 490 491 449 460 339 556 474 363 401 450 607 557 558 559 528 698 347 506 434 465 443 490 384 268 199 165 136 125 0 0 0 0 0 0 0 0 0 0 0 0 0 0 0 0 0 0 0 0 0 0 0 0 0 0 0 0 0 0 0
3 0 9 101 373 468 689 783 760 626 535 469 415 593 597 499 515 412 412 499 506 629 583 649 550 510 596 602 492 441 454 533 525 374 341 434 566 560 443 368 321 538 416 393 366 194 174 205 270 575 100 136 200 56 0 0 0 0 0 0 0 0 0 0 0 0 0 0 0 0 0 0 0 0 0 0 0 0 0 0 0 0 0 0 0
0 0 0 0 0 0 248 278 520 348 420 365 425 448 574 484 467 456 505 627 651 433 492 755 772 645 606 400 382 515 566 483 402 358 303 349 504 506 339 400 454 301 291 284 282 282 139 120 187 219 148 76 16 2 0 0 0 0 0 0 0 0 0 0 0 0 0 0 0 0 0 0 0 0 0 0 0 0 0 0 0 0 0 0 0
0 0 0 0 0 0 0 0 17 219 282 400 320 398 437 420 348 367 390 426 406 446 572 641 668 609 554 552 530 546 520 426 375 342 318 537 523 574 667 615 425 278 305 219 121 144 158 135 161 231 156 188 46 41 26 0 0 0 0 0 0 0 0 0 0 0 0 0 0 0 0 0 0 0 0 0 0 0 0 0 0 0 0 0 0
1 1 0 1 1 0 0 0 0 0 115 259 403 322 285 304 308 328 346 469 522 439 543 625 619 600 574 582 548 353 446 446 438 376 394 423 512 597 677 485 403 306 249 145 94 123 190 174 206 68 38 208 0 0 0 5 0 0 0 0 0 0 0 0 0 0 0 0 0 0 0 0 0 0 0 0 0 0 0 0 0 0 0 0 0
4 2 2 1 1 2 0 0 0 0 9 46 252 276 235 212 197 290 330 439 428 465 578 625 742 667 533 444 371 410 413 403 525 440 361 357 408 550 530 539 360 265 186 129 163 148 158 154 124 139 69 88 58 54 4 0 0 0 0 0 0 0 0 0 0 0 0 0 0 0 0 0 0 0 0 0 0 0 0 0 0 0 0 0 0
3 3 4 2 2 2 1 1 0 1 8 0 0 62 158 60 150 76 312 335 322 364 474 540 552 547 423 365 327 438 518 484 527 450 382 472 497 447 521 583 331 237 168 129 129 193 142 95 89 122 109 2 69 52 18 11 0 0 0 0 0 0 0 0 0 0 0 0 0 0 0 0 0 0 0 0 0 0 0 0 0 0 0 0 0
0 2 3 2 2 1 2 3 1 2 6 0 0 0 16 73 119 1 15 279 209 137 336 394 420 512 470 435 424 607 565 560 414 277 275 351 566 594 604 504 315 207 169 106 159 142 121 112 131 141 98 13 6 78 0 0 0 0 0 0 0 0 0 0 0 0 0 0 0 0 0 0 0 0 0 0 0 0 0 0 0 0 0 0 0
1 4 1 2 1 3 2 2 2 1 6 1 0 0 0 0 26 53 131 103 4 60 262 336 382 316 333 325 361 410 464 368 266 258 403 445 591 641 594 440 290 173 0 62 187 137 132 132 130 128 85 28 58 26 0 0 0 0 0 0 0 0 0 0 0 0 0 0 0 0 0 0 0 0 0 0 0 0 0 0 0 0 0 0 0
5 1 0 0 1 2 2 2 1 1 1 0 0 0 0 0 0 0 1 0 2 4 65 150 211 345 314 336 228 330 415 306 298 333 464 542 518 510 464 349 236 125 142 160 132 150 178 131 140 118 55 1 61 43 23 4 0 0 0 0 0 0 0 0 0 0 0 0 0 0 0 0 0 0 0 0 0 0 0 0 0 0 0 0 0
4 5 4 1 0 1 2 2 2 1 2 1 0 0 0 0 0 0 0 0 0 3 15 81 105 198 269 387 141 218 371 370 321 360 454 515 482 463 392 305 221 216 190 224 201 179 192 167 163 152 221 124 92 65 6 0 2 0 0 0 0 7 83 81 17 0 2 2 1 0 0 0 0 0 0 0 0 0 0 0 0 0 0 0 0
3 4 8 4 0 1 1 1 2 1 2 1 0 0 0 0 0 0 0 0 1 2 5 53 169 164 250 230 229 291 341 306 371 311 359 438 425 419 346 266 184 223 307 344 312 273 218 237 308 234 244 202 106 0 0 93 103 44 18 5 7 3 7 0 0 1 2 0 0 3 5 129 13 0 0 0 0 0 0 0 0 0 0 0 0
4 6 5 9 4 2 3 3 1 1 2 0 0 0 0 0 0 0 0 1 2 6 8 14 96 134 244 307 341 301 481 420 433 324 255 344 310 298 254 262 247 240 282 344 378 334 317 275 306 279 242 209 146 17 49 1 1 0 0 1 7 4 1 0 3 1 0 1 1 107 148 62 45 2 2 0 0 0 0 0 21 33 34 35 38
3 4 5 7 5 4 2 4 1 0 0 0 0 0 0 0 0 0 0 1 3 6 14 20 4 1 88 260 332 384 434 441 392 346 360 370 347 186 229 263 192 232 238 274 247 255 252 255 254 226 202 206 187 151 146 61 0 0 0 0 2 2 0 0 0 0 0 0 1 133 159 103 69 67 30 18 23 8 0 2 0 3 8 0 0
3 4 4 6 3 4 1 2 10 1 0 0 0 0 0 0 0 0 3 10 5 1 1 1 12 0 26 233 139 260 457 504 444 408 458 407 287 287 283 224 161 214 230 205 204 204 205 222 233 214 188 186 164 120 134 101 31 3 0 0 0 0 1 0 0 1 0 0 1 0 34 59 44 31 24 7 6 24 0 1 1 1 0 0 0
6 2 4 2 4 5 6 6 6 5 2 2 0 0 0 0 0 2 4 1 2 1 2 1 2 57 7 251 299 379 487 361 415 364 397 342 251 253 241 189 164 210 169 162 187 193 186 202 222 160 168 156 116 125 118 98 66 0 0 0 1 0 6 3 1 1 2 0 0 0 8 16 12 13 12 5 27 0 0 0 0 0 0 0 0
Wind_Speed
25 26 24 23 23 21 18 19 22 19 19 13 12 18 16 15 15 13 11 11 10 13 12 14 12 15 15 16 14 13 12 16 16 16 19 19 nan nan nan nan nan nan nan nan nan nan nan nan nan nan nan nan nan nan nan nan nan nan nan nan nan nan nan nan nan nan nan nan nan nan nan nan nan nan nan nan nan nan nan nan nan nan nan nan nan
22 23 24 20 21 21 21 17 19 23 20 15 11 17 17 14 15 13 11 11 11 12 13 14 12 12 13 15 15 14 12 12 13 14 17 nan nan nan nan nan nan nan nan nan nan nan nan nan nan nan nan nan nan nan nan nan nan nan nan nan nan nan nan nan nan nan nan nan nan nan nan nan nan nan nan nan nan nan nan nan nan nan nan nan nan
23 25 25 22 20 20 22 24 19 18 21 17 12 17 18 16 13 13 11 11 12 11 13 14 12 12 13 15 14 16 14 13 12 16 15 nan nan nan nan nan nan nan nan nan nan nan nan nan nan nan nan nan nan nan nan nan nan nan nan nan nan nan nan nan nan nan nan nan nan nan nan nan nan nan nan nan nan nan nan nan nan nan nan nan nan
26 28 28 26 22 20 22 23 21 27 18 15 15 16 18 18 14 13 10 11 11 10 12 15 11 11 15 14 14 16 17 14 14 17 16 nan nan nan nan nan nan nan nan nan nan nan nan nan nan nan nan nan nan nan nan nan nan nan nan nan nan nan nan nan nan nan nan nan nan nan nan nan nan nan nan nan nan nan nan nan nan nan nan nan nan
28 27 29 28 27 23 20 21 20 22 22 17 12 16 19 18 16 13 11 14 11 14 11 13 13 11 13 15 12 16 17 17 16 17 15 16 nan nan nan nan nan 15 nan nan nan nan nan nan nan nan nan nan nan nan nan nan nan nan nan nan nan nan nan nan nan nan nan nan nan nan nan nan nan nan nan nan nan nan nan nan nan nan nan nan nan
28 30 30 30 30 27 22 19 19 22 21 18 16 15 17 19 17 14 13 12 11 13 12 13 13 14 13 15 12 13 16 17 18 16 16 14 16 nan nan nan nan nan nan nan nan nan nan nan nan nan nan nan nan nan nan nan nan nan nan nan nan nan nan nan nan nan nan nan nan nan nan nan nan nan nan nan nan nan nan nan nan nan nan nan nan
29 30 31 32 32 31 25 23 22 22 23 21 22 16 16 18 19 15 15 14 11 13 12 12 14 14 17 15 12 14 14 17 16 16 14 15 14 13 15 15 nan nan nan nan nan nan nan nan nan nan nan nan nan 13 11 11 nan 9 10 nan 10 11 nan nan nan nan nan nan nan nan nan nan nan nan nan nan nan nan nan nan nan nan nan nan nan
28 31 30 30 32 33 30 24 21 22 22 21 23 21 20 20 15 16 16 16 12 13 11 13 14 16 15 16 15 15 15 17 15 15 15 14 14 13 11 12 15 nan nan nan nan nan nan nan nan nan 17 17 16 12 12 10 10 10 10 11 12 12 13 13 nan nan nan nan nan nan nan nan nan nan nan nan nan nan nan nan nan nan nan nan nan
29 31 32 31 31 32 32 28 24 23 23 24 24 22 22 23 17 16 21 16 13 12 14 15 15 17 12 18 18 17 16 15 15 15 16 12 15 12 12 12 10 16 nan nan nan nan nan nan nan 17 17 16 17 14 11 10 10 10 9 10 13 13 13 13 nan nan nan nan nan nan nan nan nan nan nan nan nan nan nan nan nan nan nan nan nan
31 32 31 31 32 31 29 28 27 24 25 24 24 25 24 23 20 18 22 16 13 13 13 15 19 17 12 16 20 19 16 16 13 15 15 13 13 12 10 12 12 12 14 nan nan nan nan nan 18 16 16 16 15 15 13 11 11 10 10 11 13 13 13 14 14 nan nan nan nan nan nan nan nan nan nan nan nan nan nan nan nan nan nan nan nan
30 30 31 30 32 32 30 28 26 25 25 24 24 26 24 22 22 20 23 15 13 13 14 13 19 17 16 15 17 19 17 15 13 14 15 14 12 13 12 12 13 13 12 13 14 nan nan nan 12 11 12 18 16 15 14 12 11 11 12 13 14 13 nan nan 14 nan nan nan nan nan nan nan nan nan nan nan nan nan nan nan nan nan nan nan nan
27 29 31 29 29 31 30 29 27 25 25 25 26 27 26 23 21 22 21 19 17 10 16 21 19 14 18 21 16 15 16 16 14 14 15 12 13 13 13 11 12 13 13 13 12 11 13 13 12 nan 11 14 17 nan nan 12 11 12 13 13 14 14 nan nan nan 14 13 nan nan nan nan nan nan nan nan nan nan nan nan nan nan nan nan nan nan
25 28 30 30 31 31 29 29 28 27 25 24 26 26 26 23 21 23 24 23 19 20 24 27 21 15 22 20 17 14 12 15 15 15 14 12 12 14 12 14 13 14 12 12 12 11 10 11 11 11 11 nan 11 15 13 12 nan 13 13 14 15 nan nan nan nan nan 15 nan nan nan nan nan nan nan nan nan nan nan nan nan nan nan nan nan nan
24 26 27 28 30 30 29 28 28 27 26 25 25 25 26 25 24 24 25 25 20 23 23 27 22 19 18 18 17 13 15 14 15 14 14 12 11 13 12 13 13 12 13 12 12 12 11 11 10 10 9 9 8 nan nan nan nan 13 13 14 15 nan nan nan nan nan nan nan nan nan nan nan nan nan nan nan nan nan nan nan nan nan nan nan nan
25 26 26 25 25 28 29 29 27 27 26 25 25 25 26 27 24 24 25 27 22 21 23 24 23 24 19 18 17 15 16 16 16 13 13 12 11 10 13 13 12 12 13 14 13 11 9 9 9 8 10 8 8 8 nan nan nan 12 13 13 15 nan nan nan nan nan nan nan nan nan nan nan nan nan nan nan nan nan nan nan nan nan nan nan nan
27 27 28 26 26 26 27 29 28 27 26 26 25 25 28 28 26 25 26 27 26 22 26 24 22 23 20 18 20 19 15 14 15 13 13 13 12 10 12 13 13 10 12 12 13 13 10 11 10 8 9 8 8 8 8 10 14 12 12 10 nan nan nan nan nan nan nan nan nan nan nan nan nan nan nan nan nan nan nan nan nan nan nan nan nan
29 27 28 27 27 27 28 28 27 26 26 27 25 25 26 28 29 28 28 27 25 25 27 26 19 19 22 23 22 19 16 20 17 15 16 13 11 11 12 12 13 12 10 12 11 13 12 12 10 10 9 9 8 7 8 10 nan 9 9 10 nan nan nan nan nan nan nan nan 19 nan nan nan nan nan nan nan nan nan nan nan nan nan nan nan nan
31 29 29 29 27 27 28 28 26 26 26 27 27 25 26 27 28 29 29 27 26 25 27 26 22 20 19 20 22 21 20 21 20 15 17 14 12 12 11 10 13 11 8 12 12 11 12 12 11 11 10 9 10 9 11 nan 11 nan nan nan nan nan nan 7 nan nan nan nan 20 nan nan nan nan nan nan nan nan nan nan nan nan nan nan nan nan
30 30 32 30 28 27 27 27 27 26 26 27 28 27 26 27 28 28 27 28 27 24 25 26 26 23 21 20 22 21 22 25 20 19 16 17 14 12 10 10 13 11 8 11 12 12 11 12 13 12 11 10 11 12 12 nan nan nan nan nan nan nan nan nan nan nan nan 20 23 nan nan nan nan nan nan nan nan nan nan nan nan nan nan nan nan
32 33 33 33 33 29 27 27 27 27 28 28 28 27 26 27 28 27 27 26 27 27 26 27 25 24 25 23 21 21 20 21 22 20 20 18 14 12 11 9 11 12 10 12 12 14 13 13 13 12 12 11 11 12 nan nan nan nan nan nan nan nan nan nan nan nan nan 21 24 23 nan nan nan nan nan nan nan nan nan nan nan nan nan nan nan
34 35 35 35 36 34 29 27 27 26 27 27 28 28 27 27 27 27 25 23 25 26 27 25 22 23 27 23 23 22 21 21 23 23 21 19 14 14 14 12 11 11 11 12 13 15 15 14 14 13 12 12 13 12 nan nan nan nan nan nan nan nan nan nan nan nan nan 18 22 23 nan nan nan nan nan nan nan nan nan nan nan nan nan nan nan
33 34 33 32 33 34 32 28 27 27 26 26 27 27 26 25 25 25 25 24 24 25 25 25 24 23 25 25 24 24 23 23 23 23 22 19 17 19 15 15 12 11 14 14 14 16 15 15 14 14 15 12 14 nan nan nan nan nan nan nan nan nan nan nan nan nan nan nan 19 22 nan nan nan nan nan nan nan nan nan nan nan nan nan nan nan
32 32 33 32 33 31 29 26 24 25 24 24 25 27 25 24 24 24 23 24 24 24 23 24 25 23 22 23 23 24 24 22 23 24 23 22 21 19 nan 10 13 14 14 16 14 16 16 14 16 nan 16 13 12 nan nan nan nan nan nan nan nan nan nan nan nan nan nan nan nan nan nan nan nan nan nan nan nan nan nan nan nan nan nan nan nan
31 34 34 32 32 33 32 25 21 21 20 21 24 25 25 25 23 23 22 22 23 24 24 24 24 23 22 23 22 23 23 23 25 27 25 22 21 nan 16 13 10 13 17 18 15 15 15 15 16 nan 18 14 12 12 nan nan nan nan nan nan nan nan nan nan nan nan nan nan nan nan nan nan nan nan nan nan nan nan nan nan nan nan nan nan nan
34 36 37 34 31 30 36 31 25 24 24 22 20 21 23 24 22 20 21 22 21 23 24 22 23 23 24 25 24 23 22 24 27 28 26 25 22 nan nan nan 14 16 19 21 18 15 17 16 14 nan 19 16 13 12 nan nan nan nan nan nan nan nan nan nan nan nan nan nan nan nan nan nan nan nan nan nan nan nan nan nan nan nan nan nan nan
34 36 41 39 35 32 33 33 29 27 30 28 22 21 24 24 22 20 19 20 21 20 21 22 22 22 25 25 24 23 23 25 26 28 26 24 22 21 21 15 15 19 22 21 20 18 18 17 14 nan nan nan nan nan nan nan nan nan nan nan nan nan nan nan nan nan nan nan nan nan nan nan nan nan nan nan nan nan nan nan nan nan nan nan nan
35 36 38 38 38 35 32 32 31 29 28 27 26 25 24 27 23 21 19 20 19 19 19 20 20 22 22 23 24 24 24 24 25 25 26 23 24 26 26 nan nan 18 22 20 20 17 20 18 14 nan nan nan nan nan nan nan nan nan nan nan nan nan nan nan nan nan nan nan nan nan nan nan nan nan nan nan nan nan nan nan nan nan nan nan nan
31 32 32 32 34 31 31 29 28 30 30 27 23 22 24 26 24 20 18 21 20 18 18 19 19 21 22 22 23 23 25 25 24 25 26 27 27 nan 28 25 nan 16 21 22 19 19 19 19 nan nan nan nan nan nan nan nan nan nan nan nan nan nan nan nan nan nan nan nan nan nan nan nan nan nan nan nan nan nan nan nan nan nan nan nan nan
30 31 28 26 28 30 31 29 28 29 29 28 25 23 25 26 23 21 19 21 20 19 18 17 19 20 21 20 21 23 25 25 26 27 28 29 27 26 27 24 nan 15 24 nan nan 20 19 18 21 nan nan nan nan nan nan nan nan nan nan nan nan nan nan nan nan nan nan nan nan nan nan nan nan nan nan nan nan nan nan nan nan nan nan nan nan
28 29 29 23 24 25 28 27 27 27 26 25 25 25 24 25 23 22 21 22 22 21 21 20 19 19 19 20 23 24 25 25 27 28 29 29 27 24 26 24 19 19 24 25 22 22 22 20 21 20 nan 18 nan nan nan nan nan nan nan nan nan nan nan nan nan nan nan nan nan nan nan nan nan nan nan nan nan nan nan nan nan nan nan nan nan
24 26 29 28 26 27 28 25 24 23 24 25 25 24 24 22 22 22 22 21 21 21 21 24 24 21 21 22 23 24 26 26 27 28 28 29 27 26 27 26 26 25 27 29 27 23 23 22 22 23 24 nan nan nan nan nan nan nan nan nan nan nan nan nan nan nan nan nan nan nan nan nan nan nan nan nan nan nan nan nan nan nan nan nan nan
26 23 23 24 25 25 26 26 24 22 21 22 23 25 25 22 21 22 22 20 18 18 21 24 25 24 25 22 21 24 27 28 27 27 28 28 28 28 28 29 30 28 29 29 nan 22 21 23 23 23 22 22 nan nan nan nan nan nan nan nan nan nan nan nan nan nan nan nan nan nan nan nan nan nan nan nan nan nan nan nan nan nan nan nan nan
21 23 21 20 21 22 24 24 23 22 22 20 20 23 24 22 22 23 22 19 15 16 20 22 22 22 24 22 22 24 27 28 28 29 29 28 29 29 29 32 30 29 28 28 26 27 24 26 25 23 23 22 24 nan nan nan nan nan nan nan nan nan nan nan nan nan nan nan nan nan nan nan nan nan nan nan nan nan nan nan nan nan nan nan nan
17 19 20 20 20 19 18 21 22 21 21 20 19 21 23 22 22 23 23 17 14 13 19 19 21 23 22 22 21 25 28 27 28 28 28 29 30 31 30 32 31 28 28 27 27 28 26 26 25 nan nan nan nan nan nan nan nan nan nan nan nan nan nan nan nan nan nan nan nan nan nan nan nan nan nan nan nan nan nan nan nan nan nan nan nan
14 14 16 18 19 19 22 18 18 18 20 21 20 20 20 20 20 20 22 20 16 14 16 20 21 23 24 24 22 25 29 28 27 28 29 30 31 31 32 31 30 28 27 26 29 28 28 26 27 27 22 22 nan nan nan nan nan nan nan nan nan nan nan nan nan nan nan nan nan nan nan nan nan nan nan nan nan nan nan nan nan nan nan nan nan
nan nan 13 13 15 16 18 24 20 16 18 19 19 18 18 18 18 18 21 22 21 15 15 18 23 23 22 22 22 25 25 27 28 29 29 31 32 32 31 32 28 31 31 30 30 31 27 27 26 27 26 27 28 28 nan nan nan nan nan nan nan nan nan nan nan nan nan nan nan nan nan nan nan nan nan nan nan nan nan nan nan nan nan nan nan
nan nan nan 15 16 15 16 18 22 23 18 15 16 18 19 19 17 18 22 25 23 18 16 19 24 25 23 20 20 25 28 26 28 29 29 29 29 30 29 27 27 31 31 31 32 35 29 23 25 30 nan 28 28 nan nan nan nan nan nan nan nan nan nan nan nan nan nan nan nan nan nan nan nan nan nan nan nan nan nan nan nan nan nan nan nan
nan nan nan nan nan nan 15 17 18 21 21 21 19 17 18 21 21 20 21 23 21 18 16 24 24 26 24 23 20 26 26 25 26 27 29 28 28 29 28 29 27 33 38 34 32 34 31 26 24 30 28 nan nan nan nan nan nan nan nan nan nan nan nan nan nan nan nan nan nan nan nan nan nan nan nan nan nan nan nan nan nan nan nan nan nan
nan nan nan nan nan nan nan nan nan 21 19 18 19 20 21 22 21 20 21 22 22 22 22 20 21 23 24 22 24 24 25 26 26 26 27 28 28 27 31 30 33 37 36 31 30 33 30 27 24 29 31 30 nan nan nan nan nan nan nan nan nan nan nan nan nan nan nan nan nan nan nan nan nan nan nan nan nan nan nan nan nan nan nan nan nan
nan nan nan nan nan nan nan nan nan nan 20 18 22 25 25 25 23 21 23 22 21 21 23 22 23 24 23 21 22 24 25 22 25 28 26 25 29 29 32 36 37 35 34 33 nan 30 32 32 28 nan nan 31 nan nan nan nan nan nan nan nan nan nan nan nan nan nan nan nan nan nan nan nan nan nan nan nan nan nan nan nan nan nan nan nan nan
nan nan nan nan nan nan nan nan nan nan nan nan 27 25 26 27 28 24 25 25 23 24 24 20 20 22 23 23 26 28 26 27 26 26 24 25 29 31 34 36 35 36 36 33 31 36 36 31 30 32 nan nan nan nan nan nan nan nan nan nan nan nan nan nan nan nan nan nan nan nan nan nan nan nan nan nan nan nan nan nan nan nan nan nan nan
nan nan nan nan nan nan nan nan nan nan nan nan nan nan 25 nan 25 nan 24 26 26 25 23 24 24 21 23 26 25 26 30 29 27 24 18 19 25 28 34 35 34 35 35 33 34 36 37 nan nan 39 36 nan nan nan nan nan nan nan nan nan nan nan nan nan nan nan nan nan nan nan nan nan nan nan nan nan nan nan nan nan nan nan nan nan nan
nan nan nan nan nan nan nan nan nan nan nan nan nan nan nan nan 24 nan nan 24 25 26 25 24 23 23 24 24 27 26 29 29 25 23 21 18 26 28 34 35 35 34 34 34 35 37 37 36 37 38 nan nan nan nan nan nan nan nan nan nan nan nan nan nan nan nan nan nan nan nan nan nan nan nan nan nan nan nan nan nan nan nan nan nan nan
nan nan nan nan nan nan nan nan nan nan nan nan nan nan nan nan nan nan 23 24 nan nan 26 26 24 24 26 27 31 32 31 30 29 29 27 30 36 39 41 40 35 35 nan nan 38 38 39 39 39 37 nan nan nan nan nan nan nan nan nan nan nan nan nan nan nan nan nan nan nan nan nan nan nan nan nan nan nan nan nan nan nan nan nan nan nan
nan nan nan nan nan nan nan nan nan nan nan nan nan nan nan nan nan nan nan nan nan nan nan 28 28 26 28 30 32 31 29 31 31 31 33 36 38 42 41 38 38 39 38 42 38 38 40 40 40 37 nan nan nan nan nan nan nan nan nan nan nan nan nan nan nan nan nan nan nan nan nan nan nan nan nan nan nan nan nan nan nan nan nan nan nan
nan nan nan nan nan nan nan nan nan nan nan nan nan nan nan nan nan nan nan nan nan nan nan nan 29 28 28 28 31 31 30 32 34 33 34 33 34 36 34 32 36 42 45 44 44 43 42 41 41 38 38 40 nan nan nan nan nan nan nan nan nan nan nan nan nan nan nan nan nan nan nan nan nan nan nan nan nan nan nan nan nan nan nan nan nan
nan nan nan nan nan nan nan nan nan nan nan nan nan nan nan nan nan nan nan nan nan nan nan nan 26 29 28 29 32 30 30 34 36 34 34 34 34 34 34 35 37 41 42 42 43 44 43 44 44 43 41 41 38 nan nan nan 37 nan nan nan nan nan nan nan nan nan nan nan nan nan nan 38 nan nan nan nan nan nan nan nan nan nan nan nan nan
nan nan nan nan nan nan nan nan nan nan nan nan nan nan nan nan nan nan nan nan nan nan nan nan nan 30 31 32 32 30 28 31 34 31 33 34 36 38 39 39 39 42 42 41 41 43 43 45 46 46 45 43 38 nan nan nan nan nan nan nan nan nan nan nan nan nan nan nan nan 34 37 nan nan nan nan nan nan nan nan nan nan nan nan nan nan
nan nan nan nan nan nan nan nan nan nan nan nan nan nan nan nan nan nan nan nan nan nan nan nan nan nan nan 30 32 31 30 30 32 33 37 35 37 42 43 40 39 41 40 41 49 50 50 54 58 57 56 57 55 52 50 nan nan nan nan nan nan nan nan nan nan nan nan nan nan 33 34 36 nan nan nan nan nan nan nan nan nan nan nan nan nan
nan nan nan nan nan nan nan nan nan nan nan nan nan nan nan nan nan nan nan nan nan nan nan nan nan nan nan 41 34 32 36 34 34 37 36 38 39 40 40 39 39 41 40 41 45 48 53 56 57 58 59 59 59 58 55 53 nan nan nan nan nan nan nan nan nan nan nan nan nan nan nan nan nan nan nan nan nan nan nan nan nan nan nan nan nan
nan nan nan nan nan nan nan nan nan nan nan nan nan nan nan nan nan nan nan nan nan nan nan nan nan nan nan 41 44 40 40 38 39 41 39 38 39 39 39 39 40 42 41 43 47 48 49 50 50 50 52 53 52 51 52 nan nan nan nan nan nan nan nan nan nan nan nan nan nan nan nan nan nan nan nan nan nan nan nan nan nan nan nan nan nan
Wind_Direction
315 313 301 287 277 282 274 286 304 304 302 306 301 298 298 296 304 308 309 308 315 307 313 306 315 313 318 314 315 309 299 299 304 311 308 310 nan nan nan nan nan nan nan nan nan nan nan nan nan nan nan nan nan nan nan nan nan nan nan nan nan nan nan nan nan nan nan nan nan nan nan nan nan nan nan nan nan nan nan nan nan nan nan nan nan
318 313 308 295 288 290 284 271 286 299 302 302 291 296 293 287 289 299 305 302 308 308 306 303 312 307 316 307 303 307 302 301 305 303 303 nan nan nan nan nan nan nan nan nan nan nan nan nan nan nan nan nan nan nan nan nan nan nan nan nan nan nan nan nan nan nan nan nan nan nan nan nan nan nan nan nan nan nan nan nan nan nan nan nan nan
310 310 309 311 301 296 287 279 281 277 289 296 284 285 286 289 280 290 293 301 300 303 299 302 308 316 308 304 312 307 313 302 291 293 302 nan nan nan nan nan nan nan nan nan nan nan nan nan nan nan nan nan nan nan nan nan nan nan nan nan nan nan nan nan nan nan nan nan nan nan nan nan nan nan nan nan nan nan nan nan nan nan nan nan nan
313 313 310 311 305 298 290 281 275 268 251 268 282 276 279 287 281 273 277 277 281 282 299 298 307 317 307 312 316 308 304 298 294 298 309 nan nan nan nan nan nan nan nan nan nan nan nan nan nan nan nan nan nan nan nan nan nan nan nan nan nan nan nan nan nan nan nan nan nan nan nan nan nan nan nan nan nan nan nan nan nan nan nan nan nan
313 311 311 311 305 301 298 289 280 265 252 228 230 273 274 277 275 277 274 275 290 291 301 301 300 305 309 304 309 307 307 308 300 295 304 310 nan nan nan nan nan 337 nan nan nan nan nan nan nan nan nan nan nan nan nan nan nan nan nan nan nan nan nan nan nan nan nan nan nan nan nan nan nan nan nan nan nan nan nan nan nan nan nan nan nan
312 312 311 312 307 303 300 296 280 265 254 247 238 250 276 274 274 269 271 269 274 287 295 296 298 294 296 299 307 305 304 303 298 296 304 311 311 nan nan nan nan nan nan nan nan nan nan nan nan nan nan nan nan nan nan nan nan nan nan nan nan nan nan nan nan nan nan nan nan nan nan nan nan nan nan nan nan nan nan nan nan nan nan nan nan
308 309 310 312 312 308 309 307 295 285 275 264 258 234 230 264 271 272 273 272 271 279 291 295 298 298 290 295 307 300 301 296 294 293 298 297 297 304 316 322 nan nan nan nan nan nan nan nan nan nan nan nan nan 351 348 1 nan 358 5 nan 9 358 nan nan nan nan nan nan nan nan nan nan nan nan nan nan nan nan nan nan nan nan nan nan nan
310 306 310 314 315 313 309 303 297 291 291 285 275 263 249 237 253 266 263 269 281 285 287 294 289 276 288 294 298 303 302 293 293 289 288 298 297 306 308 316 325 nan nan nan nan nan nan nan nan nan 355 357 359 351 345 353 355 359 357 2 8 360 354 348 nan nan nan nan nan nan nan nan nan nan nan nan nan nan nan nan nan nan nan nan nan
314 312 312 314 315 315 313 310 300 290 277 272 266 265 264 257 246 264 260 248 256 276 273 268 267 252 259 291 291 294 295 289 292 291 286 297 293 302 305 315 331 334 nan nan nan nan nan nan nan 356 353 351 357 357 349 348 349 351 352 358 358 1 1 354 nan nan nan nan nan nan nan nan nan nan nan nan nan nan nan nan nan nan nan nan nan
315 313 310 313 315 315 314 311 303 293 284 277 274 265 261 256 253 257 262 253 256 261 274 275 275 279 271 282 288 285 287 289 288 285 290 287 290 301 308 307 315 301 319 nan nan nan nan nan 351 350 346 343 356 358 357 349 347 347 358 360 358 359 3 356 350 nan nan nan nan nan nan nan nan nan nan nan nan nan nan nan nan nan nan nan nan
315 314 311 312 316 317 315 314 307 298 286 281 277 274 269 266 270 262 270 275 261 258 272 271 284 279 280 276 281 284 286 287 285 286 286 284 281 283 287 289 290 304 306 315 323 nan nan nan 341 339 343 346 353 359 4 359 353 355 357 355 354 356 nan nan 348 nan nan nan nan nan nan nan nan nan nan nan nan nan nan nan nan nan nan nan nan
315 314 315 316 316 317 318 315 309 300 293 291 288 282 277 274 277 275 260 263 282 271 261 249 251 267 264 255 239 253 283 285 284 271 268 278 285 282 284 285 289 301 311 316 325 326 332 339 344 nan 339 349 353 nan nan 6 5 358 356 353 350 348 nan nan nan 347 343 nan nan nan nan nan nan nan nan nan nan nan nan nan nan nan nan nan nan
317 316 316 319 319 316 318 317 312 306 300 297 293 287 280 278 275 268 262 249 248 256 255 258 245 254 266 276 259 251 268 271 267 265 267 267 268 281 280 286 292 300 306 314 321 322 335 340 346 332 329 nan 348 355 357 360 nan 6 358 350 347 nan nan nan nan nan 342 nan nan nan nan nan nan nan nan nan nan nan nan nan nan nan nan nan nan
316 314 314 318 318 317 317 318 318 311 308 301 293 288 283 278 273 267 265 262 254 256 262 268 260 252 250 264 259 267 257 261 266 266 267 265 270 278 282 287 296 300 308 312 320 323 331 339 336 329 325 328 337 nan nan nan nan 11 357 351 348 nan nan nan nan nan nan nan nan nan nan nan nan nan nan nan nan nan nan nan nan nan nan nan nan
319 318 314 315 317 317 316 315 316 314 313 309 300 293 290 288 283 275 267 264 266 263 272 267 261 260 255 254 255 257 267 265 264 262 269 270 265 268 282 286 295 303 310 312 314 323 320 324 316 330 323 330 330 330 nan nan nan 8 352 355 357 nan nan nan nan nan nan nan nan nan nan nan nan nan nan nan nan nan nan nan nan nan nan nan nan
320 322 317 316 314 313 311 312 315 315 315 312 306 297 296 294 288 282 276 274 277 278 276 270 260 260 264 267 251 251 261 275 275 269 268 271 271 271 274 280 283 288 296 308 310 317 321 314 317 317 317 321 320 329 335 344 342 346 345 358 nan nan nan nan nan nan nan nan nan nan nan nan nan nan nan nan nan nan nan nan nan nan nan nan nan
314 318 318 316 313 310 309 310 312 314 311 311 309 303 300 298 295 288 285 279 274 273 271 276 268 257 265 262 258 265 266 257 267 262 271 269 267 269 266 271 279 292 301 303 301 311 309 309 313 312 317 315 316 323 316 309 nan 331 336 346 nan nan nan nan nan nan nan nan 328 nan nan nan nan nan nan nan nan nan nan nan nan nan nan nan nan
310 314 314 311 313 312 309 307 307 308 309 309 308 305 303 302 298 291 289 283 276 274 274 272 277 273 271 265 257 265 270 264 259 261 261 264 262 267 272 277 275 256 282 298 305 302 299 303 303 306 312 308 310 312 302 nan 313 nan nan nan nan nan nan 340 nan nan nan nan 325 nan nan nan nan nan nan nan nan nan nan nan nan nan nan nan nan
305 306 306 308 306 306 306 305 302 299 299 302 305 310 308 304 298 293 292 287 281 278 280 276 276 281 281 276 266 260 266 268 270 261 259 260 257 263 263 275 290 298 301 299 301 299 293 295 300 304 305 297 304 304 301 nan nan nan nan nan nan nan nan nan nan nan nan 330 323 nan nan nan nan nan nan nan nan nan nan nan nan nan nan nan nan
305 303 303 306 304 303 305 303 302 298 295 296 300 304 304 302 299 296 289 290 291 284 280 278 284 280 284 280 276 271 268 265 263 263 258 261 265 262 262 269 280 296 296 296 299 295 293 294 293 297 296 294 301 298 nan nan nan nan nan nan nan nan nan nan nan nan nan 328 319 320 nan nan nan nan nan nan nan nan nan nan nan nan nan nan nan
302 302 304 307 306 302 302 303 304 302 297 292 292 297 304 304 301 294 292 290 290 290 283 286 288 279 278 275 272 269 265 263 266 262 261 259 250 268 269 265 266 283 289 287 289 286 291 292 290 298 290 295 294 301 nan nan nan nan nan nan nan nan nan nan nan nan nan 312 318 317 nan nan nan nan nan nan nan nan nan nan nan nan nan nan nan
295 296 296 306 308 306 302 303 302 301 297 294 289 291 296 300 302 299 292 289 287 292 291 286 290 282 277 273 272 266 261 262 261 263 254 251 252 252 255 273 286 288 289 286 287 283 292 289 290 294 290 290 294 nan nan nan nan nan nan nan nan nan nan nan nan nan nan nan 310 313 nan nan nan nan nan nan nan nan nan nan nan nan nan nan nan
295 293 294 298 307 303 297 289 291 295 296 296 291 288 288 294 298 295 292 293 288 290 292 288 287 287 282 275 274 272 271 272 271 269 266 258 255 258 nan 265 290 285 288 287 289 291 291 293 285 nan 295 291 290 nan nan nan nan nan nan nan nan nan nan nan nan nan nan nan nan nan nan nan nan nan nan nan nan nan nan nan nan nan nan nan nan
300 301 299 301 299 304 299 289 282 284 290 287 288 289 286 287 289 293 290 293 289 290 290 290 290 287 287 279 272 267 266 267 266 267 268 264 265 nan 256 250 268 268 279 285 288 283 289 296 294 nan 294 295 294 296 nan nan nan nan nan nan nan nan nan nan nan nan nan nan nan nan nan nan nan nan nan nan nan nan nan nan nan nan nan nan nan
302 299 300 298 296 293 294 302 309 310 300 285 282 284 284 279 286 292 290 290 294 295 290 289 288 286 285 280 274 270 268 265 267 267 262 264 267 nan nan nan 279 282 280 282 280 282 285 286 287 nan 292 294 297 286 nan nan nan nan nan nan nan nan nan nan nan nan nan nan nan nan nan nan nan nan nan nan nan nan nan nan nan nan nan nan nan
304 304 302 302 298 295 293 294 299 306 303 300 296 290 281 281 283 289 295 293 290 297 294 285 281 283 280 280 277 272 267 265 268 269 268 265 263 263 255 247 255 264 271 277 277 278 273 271 268 nan nan nan nan nan nan nan nan nan nan nan nan nan nan nan nan nan nan nan nan nan nan nan nan nan nan nan nan nan nan nan nan nan nan nan nan
305 305 304 307 308 302 294 293 295 297 297 294 298 301 296 284 277 280 287 295 297 293 291 291 287 285 283 281 277 270 266 268 269 270 269 266 262 261 258 nan nan 257 270 273 275 279 271 268 283 nan nan nan nan nan nan nan nan nan nan nan nan nan nan nan nan nan nan nan nan nan nan nan nan nan nan nan nan nan nan nan nan nan nan nan nan
307 308 308 309 309 308 303 299 295 293 295 296 295 294 291 285 282 284 288 287 295 302 297 296 291 285 282 279 275 269 265 268 269 268 267 265 264 nan 259 256 nan 252 270 270 263 269 279 276 nan nan nan nan nan nan nan nan nan nan nan nan nan nan nan nan nan nan nan nan nan nan nan nan nan nan nan nan nan nan nan nan nan nan nan nan nan
310 308 306 307 310 310 307 307 306 302 303 305 298 293 292 286 284 285 286 286 289 293 294 297 290 283 278 283 279 271 267 267 265 264 265 266 265 262 261 257 nan 252 269 nan nan 269 277 274 274 nan nan nan nan nan nan nan nan nan nan nan nan nan nan nan nan nan nan nan nan nan nan nan nan nan nan nan nan nan nan nan nan nan nan nan nan
307 311 309 304 308 314 313 314 311 305 305 299 289 285 289 288 283 283 284 281 284 285 289 293 289 282 278 276 274 271 269 267 264 263 266 267 265 262 257 256 261 261 258 266 264 268 270 276 272 272 nan 280 nan nan nan nan nan nan nan nan nan nan nan nan nan nan nan nan nan nan nan nan nan nan nan nan nan nan nan nan nan nan nan nan nan
306 308 312 319 318 315 314 314 312 310 302 297 293 287 284 284 281 278 271 269 276 280 279 283 285 285 288 283 275 270 269 269 264 262 263 264 264 261 257 255 263 265 259 255 252 246 255 270 265 266 275 nan nan nan nan nan nan nan nan nan nan nan nan nan nan nan nan nan nan nan nan nan nan nan nan nan nan nan nan nan nan nan nan nan nan
311 313 311 314 314 315 311 309 309 307 302 297 293 293 293 292 288 280 271 267 268 274 276 276 277 285 282 276 276 273 269 267 265 263 263 262 261 260 257 255 257 260 258 262 nan 253 248 266 265 275 277 280 nan nan nan nan nan nan nan nan nan nan nan nan nan nan nan nan nan nan nan nan nan nan nan nan nan nan nan nan nan nan nan nan nan
306 310 310 311 309 310 312 311 308 303 301 299 293 291 294 295 295 285 268 263 269 267 268 266 266 275 280 282 284 280 273 270 266 264 262 262 261 260 256 256 259 261 262 259 259 258 247 252 259 270 274 276 278 nan nan nan nan nan nan nan nan nan nan nan nan nan nan nan nan nan nan nan nan nan nan nan nan nan nan nan nan nan nan nan nan
302 306 312 310 306 308 308 304 301 303 302 300 295 294 298 298 298 291 277 269 266 270 272 274 270 264 268 271 275 279 276 273 267 266 265 261 260 261 260 257 257 257 258 257 259 257 258 255 256 nan nan nan nan nan nan nan nan nan nan nan nan nan nan nan nan nan nan nan nan nan nan nan nan nan nan nan nan nan nan nan nan nan nan nan nan
288 290 300 310 312 313 308 303 301 301 304 304 301 301 302 299 299 297 287 280 281 280 279 275 270 267 264 265 267 267 269 271 267 266 264 263 261 260 259 257 254 255 254 258 257 254 259 258 260 264 262 267 nan nan nan nan nan nan nan nan nan nan nan nan nan nan nan nan nan nan nan nan nan nan nan nan nan nan nan nan nan nan nan nan nan
nan nan 282 287 296 299 308 306 307 307 305 304 301 301 304 301 296 290 282 281 280 279 276 273 270 264 265 265 265 266 265 267 268 265 264 263 261 258 255 248 250 252 249 251 252 248 245 257 261 267 264 267 261 264 nan nan nan nan nan nan nan nan nan nan nan nan nan nan nan nan nan nan nan nan nan nan nan nan nan nan nan nan nan nan nan
nan nan nan 285 282 280 286 295 304 307 306 301 304 307 302 296 288 274 264 260 260 257 258 270 264 262 260 263 262 266 265 266 266 268 268 267 261 258 254 250 244 252 255 250 251 254 254 240 249 257 nan 264 265 nan nan nan nan nan nan nan nan nan nan nan nan nan nan nan nan nan nan nan nan nan nan nan nan nan nan nan nan nan nan nan nan
nan nan nan nan nan nan 285 285 284 290 297 309 319 313 302 293 284 272 265 269 272 270 268 263 263 261 260 263 270 272 272 272 269 268 267 264 258 255 256 250 251 251 249 243 246 253 250 240 240 254 261 nan nan nan nan nan nan nan nan nan nan nan nan nan nan nan nan nan nan nan nan nan nan nan nan nan nan nan nan nan nan nan nan nan nan
nan nan nan nan nan nan nan nan nan 281 293 305 307 305 299 294 292 288 284 277 273 264 261 271 271 262 261 264 267 267 266 265 267 267 265 265 263 258 256 258 254 252 254 257 252 249 247 237 239 259 264 256 nan nan nan nan nan nan nan nan nan nan nan nan nan nan nan nan nan nan nan nan nan nan nan nan nan nan nan nan nan nan nan nan nan
nan nan nan nan nan nan nan nan nan nan 285 287 284 269 268 270 275 290 293 282 277 278 281 276 272 268 266 263 264 269 270 266 261 258 262 264 263 256 251 255 254 254 251 247 nan 253 249 236 232 nan nan 261 nan nan nan nan nan nan nan nan nan nan nan nan nan nan nan nan nan nan nan nan nan nan nan nan nan nan nan nan nan nan nan nan nan
nan nan nan nan nan nan nan nan nan nan nan nan 284 283 278 273 274 275 284 287 285 284 281 283 277 270 267 264 260 261 268 274 272 264 261 265 263 259 254 255 254 255 254 251 243 250 249 242 239 233 nan nan nan nan nan nan nan nan nan nan nan nan nan nan nan nan nan nan nan nan nan nan nan nan nan nan nan nan nan nan nan nan nan nan nan
nan nan nan nan nan nan nan nan nan nan nan nan nan nan 264 nan 277 nan 280 289 292 286 281 278 273 267 264 263 258 263 268 264 265 271 267 268 270 260 256 257 259 262 265 260 251 251 250 nan nan 246 242 nan nan nan nan nan nan nan nan nan nan nan nan nan nan nan nan nan nan nan nan nan nan nan nan nan nan nan nan nan nan nan nan nan nan
nan nan nan nan nan nan nan nan nan nan nan nan nan nan nan nan 274 nan nan 277 288 292 283 277 277 276 268 264 266 265 263 267 270 279 280 283 281 266 264 266 267 269 268 264 258 253 252 248 245 246 nan nan nan nan nan nan nan nan nan nan nan nan nan nan nan nan nan nan nan nan nan nan nan nan nan nan nan nan nan nan nan nan nan nan nan
nan nan nan nan nan nan nan nan nan nan nan nan nan nan nan nan nan nan 286 285 nan nan 283 279 276 272 269 266 263 262 263 268 268 268 271 274 272 266 265 266 268 263 nan nan 261 257 253 250 247 248 nan nan nan nan nan nan nan nan nan nan nan nan nan nan nan nan nan nan nan nan nan nan nan nan nan nan nan nan nan nan nan nan nan nan nan
nan nan nan nan nan nan nan nan nan nan nan nan nan nan nan nan nan nan nan nan nan nan nan 282 279 271 267 268 269 270 263 269 265 264 262 260 257 261 263 262 262 265 259 254 257 264 260 252 248 248 nan nan nan nan nan nan nan nan nan nan nan nan nan nan nan nan nan nan nan nan nan nan nan nan nan nan nan nan nan nan nan nan nan nan nan
nan nan nan nan nan nan nan nan nan nan nan nan nan nan nan nan nan nan nan nan nan nan nan nan 283 280 276 274 270 268 264 265 266 268 264 261 261 262 264 263 260 257 257 263 264 264 260 253 249 251 247 247 nan nan nan nan nan nan nan nan nan nan nan nan nan nan nan nan nan nan nan nan nan nan nan nan nan nan nan nan nan nan nan nan nan
nan nan nan nan nan nan nan nan nan nan nan nan nan nan nan nan nan nan nan nan nan nan nan nan 278 280 277 271 265 265 264 267 269 273 272 272 271 269 264 259 257 254 254 255 256 253 251 245 243 244 247 246 244 nan nan nan 243 nan nan nan nan nan nan nan nan nan nan nan nan nan nan 261 nan nan nan nan nan nan nan nan nan nan nan nan nan
nan nan nan nan nan nan nan nan nan nan nan nan nan nan nan nan nan nan nan nan nan nan nan nan nan 271 270 271 269 267 265 268 278 285 280 276 278 274 264 258 255 251 245 244 241 243 243 247 246 244 243 244 246 nan nan nan nan nan nan nan nan nan nan nan nan nan nan nan nan 260 267 nan nan nan nan nan nan nan nan nan nan nan nan nan nan
nan nan nan nan nan nan nan nan nan nan nan nan nan nan nan nan nan nan nan nan nan nan nan nan nan nan nan 272 273 271 275 272 277 282 283 284 274 270 267 261 257 252 246 244 244 249 250 250 250 248 248 245 242 239 240 nan nan nan nan nan nan nan nan nan nan nan nan nan nan 255 270 273 nan nan nan nan nan nan nan nan nan nan nan nan nan
nan nan nan nan nan nan nan nan nan nan nan nan nan nan nan nan nan nan nan nan nan nan nan nan nan nan nan 252 263 274 273 271 279 281 279 271 267 267 262 260 258 254 248 248 253 251 253 252 252 252 249 245 243 242 243 245 nan nan nan nan nan nan nan nan nan nan nan nan nan nan nan nan nan nan nan nan nan nan nan nan nan nan nan nan nan
nan nan nan nan nan nan nan nan nan nan nan nan nan nan nan nan nan nan nan nan nan nan nan nan nan nan nan 253 248 258 263 268 274 271 265 263 266 260 258 256 254 254 253 256 260 260 258 256 253 249 245 242 243 246 247 nan nan nan nan nan nan nan nan nan nan nan nan nan nan nan nan nan nan nan nan nan nan nan nan nan nan nan nan nan nan